Weather History for KJDN - May, 2014

Change the Weather History Date:

Thursday, May 15, 2014

  Actual Average Record
Temperature  
Mean Temperature 54 °F 52 °F  
Max Temperature 72 °F 66 °F - ()
Min Temperature 36 °F 38 °F - ()
Degree Days  
Heating Degree Days 11 13  
Month to date heating degree days 281 223  
Since 1 July heating degree days 8342 7957  
Cooling Degree Days 0 0  
Month to date cooling degree days 0 0  
Year to date cooling degree days 0 0  
Growing Degree Days 4 (Base 50)    
Moisture  
Dew Point 36 °F    
Average Humidity 53    
Maximum Humidity 77    
Minimum Humidity 29    
Precipitation  
Precipitation 0.00 in 0.06 in - ()
Month to date precipitation 1.22 0.84  
Year to date precipitation 2.82 2.92  
Snow  
Snow 0.00 in - - ()
Month to date snowfall 0.0  
Since 1 July snowfall 0.0  
Snow Depth 0.00 in    
Sea Level Pressure  
Sea Level Pressure 30.10 in    
Wind  
Wind Speed 9 mph (WSW)    
Max Wind Speed 22 mph    
Max Gust Speed 27 mph    
T = Trace of Precipitation, MM = Missing Value Source: NWS Daily Summary

Daily Weather History Graph

Daily Weather History Graph

Search for Another Location

Airport or City:

Trip Planner

Search our weather history database for the weather conditions in past years. The results will help you decide how hot, cold, wet, or windy it might be!

Date:

Astronomy

May. 15, 2014 Rise Set
Actual Time 5:31 AM MDT 8:37 PM MDT
Civil Twilight 4:54 AM MDT 9:14 PM MDT
Nautical Twilight 4:07 AM MDT 10:01 PM MDT
Astronomical Twilight 3:10 AM MDT 11:00 PM MDT
Moon 9:48 PM MDT (5/15) 6:21 AM MDT (5/15)
Length of Visible Light 16h 19m
Length of Day
15h 06m
Full, 99% of the Moon is Illuminated
May 15
Full
May 21
Last Quarter
May 28
New
Jun 5
First Quarter
Jun 12
Full

Hourly Weather History & Observations

Time (MDT) Temp. Windchill Dew Point Humidity Pressure Visibility Wind Dir Wind Speed Gust Speed Precip Events Conditions
12:48 AM 44.1 °F - 28.9 °F 55% 30.27 in - Calm Calm - N/A   Unknown
1:48 AM 45.0 °F 43.5 °F 28.0 °F 52% 30.25 in - SW 3.5 mph - N/A   Unknown
2:48 AM 44.1 °F 40.1 °F 27.0 °F 51% 30.24 in - WSW 6.9 mph - N/A   Unknown
3:48 AM 43.0 °F 40.3 °F 28.0 °F 56% 30.23 in - Variable 4.6 mph - N/A   Unknown
4:48 AM 42.1 °F 40.2 °F 27.0 °F 55% 30.22 in - Variable 3.5 mph - N/A   Unknown
5:48 AM 37.0 °F 34.5 °F 28.9 °F 73% 30.21 in - NW 3.5 mph - N/A   Unknown
6:48 AM 41.0 °F - 32.0 °F 70% 30.21 in - Calm Calm - N/A   Unknown
7:48 AM 52.0 °F - 32.0 °F 47% 30.18 in - SSW 5.8 mph - N/A   Unknown
8:48 AM 55.9 °F - 32.0 °F 40% 30.17 in - SSW 10.4 mph - N/A   Unknown
9:48 AM 63.0 °F - 33.1 °F 33% 30.14 in - SSW 15.0 mph - N/A   Unknown
10:48 AM 64.9 °F - 33.1 °F 31% 30.12 in - SSW 11.5 mph - N/A   Unknown
11:48 AM 66.9 °F - 34.0 °F 30% 30.10 in - SSW 11.5 mph - N/A   Unknown
12:48 PM 68.0 °F - 35.1 °F 30% 30.07 in - South 11.5 mph - N/A   Unknown
1:48 PM 68.0 °F - 36.0 °F 31% 30.04 in - SSE 12.7 mph - N/A   Unknown
2:48 PM 71.1 °F - 37.0 °F 29% 30.00 in - South 10.4 mph - N/A   Unknown
3:48 PM 70.0 °F - 37.9 °F 31% 29.99 in - NNW 15.0 mph - N/A   Unknown
3:56 PM 70.0 °F - 39.0 °F 32% 29.98 in - North 15.0 mph - N/A   Unknown
4:48 PM 68.0 °F - 39.0 °F 35% 29.99 in - NE 11.5 mph - N/A   Unknown
5:48 PM 64.9 °F - 42.1 °F 43% 30.01 in - ENE 11.5 mph - N/A   Unknown
6:48 PM 63.0 °F - 42.1 °F 46% 30.01 in - East 8.1 mph - N/A   Unknown
7:48 PM 62.1 °F - 43.0 °F 50% 29.99 in - SSE 5.8 mph - N/A   Unknown
8:48 PM 55.9 °F - 44.1 °F 64% 30.00 in - North 8.1 mph - N/A   Unknown
9:48 PM 57.0 °F - 43.0 °F 59% 30.01 in - NNW 12.7 mph - N/A   Unknown
10:48 PM 54.0 °F - 43.0 °F 66% 30.01 in - NNW 11.5 mph - N/A   Unknown
11:48 PM 52.0 °F - 44.1 °F 74% 30.03 in - NW 9.2 mph - N/A   Unknown